Overview Statistics Trail Chart Weather Telemetry Raw packets
 

This is the latest recevied weather packets stored in our database for station/object G4WLC-1. If no packets are shown the sender has not sent any weather packets the latest 10 day(s).

<< 99 100 101 102 103 104 105 >>
Time Temp. Humidity Pressure Rain* Wind** Luminosity Snow
1787921541 20.56° C 80% 1006 hPa 0 mm - - -
1787921241 20° C 83% 1006 hPa 0 mm - - -
1787920945 20° C 85% 1005.9 hPa 0 mm - - -
1787920641 19.44° C 84% 1005.9 hPa 0 mm - - -
1787920341 19.44° C 84% 1005.9 hPa 0 mm - - -
1787920041 19.44° C 84% 1006 hPa 0 mm - - -
1787919741 19.44° C 85% 1005.9 hPa 0 mm - - -
1787919441 19.44° C 84% 1006 hPa 0 mm - - -
1787919141 19.44° C 84% 1005.9 hPa 0 mm - - -
1787918841 19.44° C 84% 1005.8 hPa 0 mm - - -
1787918541 20° C 83% 1005.8 hPa 0 mm - - -
1787918241 20° C 85% 1005.7 hPa 0 mm - - -
1787917941 19.44° C 84% 1005.7 hPa 0 mm - - -
1787917641 19.44° C 84% 1005.8 hPa 0 mm - - -
1787917341 19.44° C 84% 1005.8 hPa 0 mm - - -
1787917041 19.44° C 85% 1005.7 hPa 0 mm - - -
1787916741 19.44° C 85% 1005.7 hPa 0 mm - - -
1787916441 19.44° C 84% 1005.9 hPa 0 mm - - -
1787916141 19.44° C 87% 1005.7 hPa 0 mm - - -
1787915841 19.44° C 87% 1005.8 hPa 0 mm - - -
1787915541 18.89° C 88% 1005.8 hPa 0 mm - - -
1787915241 18.89° C 89% 1005.9 hPa 0.25 mm - - -
1787914947 18.33° C 90% 1005.9 hPa 0.51 mm - - -
1787914641 18.33° C 90% 1006 hPa 0.51 mm - - -
1787914341 17.78° C 90% 1005.9 hPa 0.51 mm - - -

* Rain latest hour (hover to see other rain measurements)
** Current wind speed in m/s (hover to see current wind gust speed)